Overview Statistics Trail Chart Weather Telemetry Raw packets
 

This is the latest recevied weather packets stored in our database for station/object W0CHP-13. If no packets are shown the sender has not sent any weather packets the latest 10 day(s).

<< 52 53 54 55 56 57 58 >>
Time Temp. Humidity Pressure Rain* Wind** Luminosity Snow
1787895196 17.22° C 83% 1016.9 hPa 0 mm - 0 W/m² -
1787894598 17.78° C 84% 1016.8 hPa 0 mm - 0 W/m² -
1787893996 17.78° C 83% 1016.8 hPa 0 mm - 0 W/m² -
1787893395 17.78° C 83% 1016.8 hPa 0 mm - 0 W/m² -
1787892798 17.78° C 84% 1016.8 hPa 0 mm - 0 W/m² -
1787892196 18.33° C 83% 1016.5 hPa 0 mm - 0 W/m² -
1787891598 18.33° C 81% 1016.5 hPa 0 mm - 0 W/m² -
1787890996 18.33° C 81% 1016.8 hPa 0 mm - 0 W/m² -
1787890395 18.33° C 77% 1016.7 hPa 0 mm - 0 W/m² -
1787889797 18.89° C 79% 1016.8 hPa 0 mm - 0 W/m² -
1787889196 18.33° C 77% 1016.5 hPa 0 mm - 0 W/m² -
1787888598 18.89° C 75% 1016.5 hPa 0 mm - 0 W/m² -
1787887997 18.89° C 74% 1016.5 hPa 0 mm - 0 W/m² -
1787887395 18.89° C 74% 1016.5 hPa 0 mm - 0 W/m² -
1787886797 19.44° C 73% 1016.5 hPa 0 mm - 0 W/m² -
1787886196 19.44° C 75% 1016.2 hPa 0 mm - 0 W/m² -
1787885598 19.44° C 75% 1016.4 hPa 0 mm - 0 W/m² -
1787884996 20° C 76% 1016.1 hPa 0 mm - 0 W/m² -
1787884415 20° C 75% 1016.1 hPa 0 mm - 0 W/m² -
1787883797 20° C 73% 1016 hPa 0 mm - 0 W/m² -
1787883196 20.56° C 73% 1015.8 hPa 0 mm - 0 W/m² -
1787882598 20.56° C 71% 1015.8 hPa 0 mm - 0 W/m² -
1787881997 21.11° C 70% 1015.8 hPa 0 mm - 0 W/m² -
1787881398 21.67° C 69% 1015.7 hPa 0 mm - 0 W/m² -
1787880797 21.67° C 69% 1015.8 hPa 0 mm - 0 W/m² -

* Rain latest hour (hover to see other rain measurements)
** Current wind speed in m/s (hover to see current wind gust speed)